Location: Hamburg
(53.5511°N, 9.9937°E)
Time: 17:02:35
(UTC+02:00)

ISS - Pass Details

Date: 24 March 2026
Orbit: 416 x 425 km, 51.6° (Epoch: 19 April)

Event Time Altitude Azimuth Distance (km) Brightness Sun altitude
Rises 19:08:46 0° 275° (W) 2,390 2.9 -5.0°
Reaches altitude 10° 19:10:55 10° 270° (W) 1,522 0.8 -5.3°
Maximum altitude 19:14:14 49° 195° (SSW) 556 -3.1 -5.8°
Drops below altitude 10° 19:17:32 10° 119° (ESE) 1,513 -1.5 -6.2°
Enters shadow 19:18:01 - 117° (ESE) 1,706 -1.3 -6.3°
